Location: Agun
(8.3833°N, 4.5833°E)
Time: 14:31:54
(UTC+00:00)

Daily predictions for brighter satellites

Satellite Brightness Start Highest point End
(mag) Time Altitude Azimuth Time Altitude Azimuth Time Altitude Azimuth
Lacrosse 5 2.1 18:04:25 10° NW 18:09:28 78° WSW 18:14:32 10° SSE
STARLINK-1173 3.0 18:07:05 10° NW 18:10:10 75° WSW 18:13:16 10° SSE
STARLINK-1136 3.1 18:07:32 10° NW 18:10:36 74° WSW 18:13:42 10° SSE
STARLINK-1133 3.1 18:13:13 10° NW 18:16:21 75° SW 18:19:29 10° SSE
STARLINK-1180 3.1 18:13:28 10° NW 18:16:39 75° SW 18:19:50 10° SSE
STARLINK-1153 3.1 18:13:28 10° NW 18:16:41 75° SW 18:19:53 10° SSE
STARLINK-1174 3.1 18:13:33 10° NW 18:16:44 74° SW 18:19:55 10° SSE
STARLINK-1139 3.1 18:13:35 10° NW 18:16:45 74° SW 18:19:56 10° SSE
STARLINK-1151 3.1 18:13:47 10° NW 18:16:57 74° SW 18:20:07 10° SSE
STARLINK-1183 3.1 18:14:04 10° NW 18:17:09 72° SW 18:20:14 10° SSE
STARLINK-1181 3.1 18:14:31 10° NW 18:17:35 71° SW 18:20:41 10° SSE
CZ-2D R/B 4.1 18:14:23 10° SE 18:17:46 29° ENE 18:21:07 10° NNE
STARLINK-1196 3.1 18:14:58 10° NW 18:18:03 69° WSW 18:21:08 10° SSE
Cosmos 1766 3.2 18:14:17 10° S 18:18:16 79° E 18:22:14 10° N
STARLINK-1186 3.2 18:15:24 10° NW 18:18:29 68° WSW 18:21:36 10° SSE
STARLINK-1185 3.2 18:15:51 10° NW 18:18:56 67° SW 18:22:01 10° SSE
Cosmos 1536 Rocket 4.2 18:14:40 10° NNW 18:18:56 60° W 18:23:12 10° S
STARLINK-1175 3.3 18:16:18 10° NW 18:19:24 66° WSW 18:22:30 10° SSE
STARLINK-1147 3.3 18:16:46 10° NW 18:19:50 64° SW 18:22:55 10° SSE
STARLINK-1146 3.3 18:17:13 10° NW 18:20:18 63° SW 18:23:22 10° SSE
Cosmos 1674 4.1 18:17:57 10° NE 18:20:22 17° E 18:22:48 10° SE
STARLINK-1152 3.3 18:17:40 10° NW 18:20:44 62° SW 18:23:48 10° SSE
STARLINK-1195 3.4 18:18:06 10° NW 18:21:12 61° SW 18:24:17 10° SSE
STARLINK-1137 3.4 18:18:34 10° NW 18:21:38 59° SW 18:24:41 10° SSE
STARLINK-1142 3.5 18:19:01 10° NW 18:22:05 58° WSW 18:25:10 10° SSE
STARLINK-1127 3.5 18:19:30 10° NW 18:22:32 57° SW 18:25:36 10° SSE
SL-4 R/B 2.9 18:20:01 10° S 18:22:47 21° SE 18:25:17 11° ENE
STARLINK-1184 3.5 18:19:56 10° NW 18:22:59 56° SW 18:26:01 10° SSE
STARLINK-1193 3.6 18:20:23 10° NW 18:23:27 55° WSW 18:26:31 10° SSE
STARLINK-1168 3.6 18:20:36 10° NW 18:23:44 55° WSW 18:26:53 10° SSE
STARLINK-1164 3.6 18:20:39 10° NW 18:23:48 55° WSW 18:26:57 10° SSE
STARLINK-1194 3.6 18:20:50 10° NW 18:23:53 54° SW 18:26:55 10° SSE
STARLINK-1182 3.6 18:20:44 10° NW 18:23:53 55° SW 18:27:02 10° SSE
STARLINK-1172 3.7 18:21:22 10° NW 18:24:31 54° SW 18:27:41 10° SSE
STARLINK-1145 3.7 18:21:30 10° NW 18:24:38 53° SW 18:27:48 10° SSE
STARLINK-1161 3.7 18:21:38 10° NW 18:24:47 53° SW 18:27:57 10° SSE
STARLINK-1160 3.7 18:21:48 10° NW 18:24:57 53° SW 18:28:07 10° SSE
SL-16 R/B 2.6 18:20:45 10° SSW 18:26:23 70° WNW 18:32:00 10° N
CSL-04 Rocket 4.1 18:22:35 10° SE 18:27:35 40° ENE 18:32:31 10° N
CZ-4 R/B 4.5 18:23:47 10° SSE 18:27:56 89° WSW 18:32:05 10° NNW
Delta 168 3.6 18:25:52 10° W 18:29:32 51° SSW 18:34:47 10° SE
Ariane H10+ 3.8 18:20:08 10° W 18:31:07 32° SSW 18:35:22 10° SE
Okean-O 3.7 18:30:15 10° S 18:34:31 48° WSW 18:38:47 10° NNW
NOAA 11 4.1 18:30:29 10° SSE 18:35:54 80° ENE 18:41:19 10° N
Cosmos 1844 Rocket 4.4 18:30:55 10° NW 18:35:58 35° WSW 18:41:01 10° SSW
Intelsat 5-1 Rocket 4.2 18:35:51 10° SSW 18:37:01 11° S 18:38:24 10° SSE
Cosmos 1242 Rocket 2.5 18:36:04 10° N 18:39:33 81° W 18:43:04 10° S
Centaur AC-42 3.9 18:35:10 10° WNW 18:42:49 27° NNW 18:46:22 10° NE
Cosmos 1603 4.2 18:43:09 10° S 18:48:18 36° ESE 18:53:23 10° NE
YAOGAN 1 2.7 18:44:54 10° S 18:49:13 78° W 18:53:31 10° NNW
Cosmos 2251 Rocket 3.9 18:45:58 10° S 18:50:55 41° E 18:55:54 10° NNE
Cosmos 1455 Rocket 3.7 18:47:10 10° SSW 18:51:24 57° W 18:55:38 10° N
CZ-3A R/B 4.5 18:18:01 10° WNW 18:53:53 41° N 19:00:42 14° NE
Lacrosse 4 Rocket 3.5 18:52:52 10° NW 18:56:39 29° WSW 19:00:22 10° SSW
STARLINK-1162 3.6 18:54:12 10° NNW 18:58:18 61° NE 18:59:48 36° ESE
Atlas Centaur 2 2.3 18:53:36 10° NW 18:59:10 46° NNE 19:00:56 32° ENE
STARLINK-1129 3.6 18:55:33 10° NNW 18:59:38 61° NE 19:00:58 38° ESE
Hubble Space Telescope 1.9 18:57:29 10° SSW 19:00:57 26° SSE 19:00:57 26° SSE
STARLINK-1157 3.5 18:59:08 10° NNW 19:03:16 71° NE 19:04:35 41° SE
STARLINK-1134 3.5 19:00:30 10° NNW 19:04:36 71° NE 19:05:46 45° SE
TRAILBLAZER 4.5 19:00:45 10° SSW 19:05:23 73° ESE 19:09:51 11° NNE
SL-08 ROCKET BODY 4.3 19:00:44 10° N 19:06:39 64° E 19:12:29 10° SSE
STARLINK-1159 3.5 19:04:05 10° NNW 19:08:14 83° NE 19:09:22 47° SE
GPS 2-17 Rocket1 3.5 19:04:29 10° WNW 19:09:13 53° NNE 19:10:26 41° ENE
STARLINK-1135 3.4 19:05:27 10° NNW 19:09:34 83° NE 19:10:33 51° SE
Cosmos 371 Rocket 3.1 19:07:05 10° N 19:11:55 79° ENE 19:14:52 24° SSE
STARLINK-1171 3.5 19:09:04 10° NW 19:13:13 85° SW 19:14:10 52° SSE
STARLINK-1141 3.5 19:10:25 10° NW 19:14:32 84° SW 19:15:21 57° SSE
Cosmos 1386 Rocket 4.3 19:11:40 10° N 19:17:40 86° E 19:23:42 10° S
CZ-2C R/B 4.1 19:19:38 29° NE 19:19:38 29° NE 19:22:37 10° N
STARLINK-1155 3.7 19:14:02 10° NW 19:18:10 73° SW 19:18:57 55° S
Cosmos 1892 Rocket 3.6 19:14:42 10° N 19:19:10 81° W 19:22:59 14° S
STARLINK-1140 3.7 19:15:24 10° NW 19:19:30 72° SW 19:20:08 59° S
Milstar 3 Cent rocket 4.3 19:11:43 10° NW 19:21:09 73° NNE 19:31:32 32° ESE
Cosmos 1470 3.4 19:17:26 10° SSW 19:21:11 53° W 19:24:56 10° N
STARLINK-1166 3.9 19:19:04 10° NW 19:23:10 62° SW 19:23:46 54° SSW
Cosmos 2278 Rocket 2.2 19:17:34 10° NNW 19:23:14 84° WSW 19:26:52 23° SSE
Meteor 2-5 Rocket 3.8 19:18:28 10° N 19:23:58 73° W 19:29:27 10° S
CZ-4 R/B 4.4 19:22:07 10° SW 19:24:21 15° W 19:26:34 10° WNW
STARLINK-1156 3.9 19:20:26 10° NW 19:24:30 61° SW 19:24:56 57° SSW
STARLINK-1165 4.2 19:24:04 10° NW 19:28:06 53° WSW 19:28:32 50° SSW
STARLINK-1148 4.2 19:25:26 10° NW 19:29:27 52° SW 19:29:42 51° SW
Okean 1-7 Rocket 3.8 19:26:48 10° NNW 19:31:08 66° W 19:32:29 41° SSW
STARLINK-1169 4.5 19:29:07 10° NW 19:33:05 45° WSW 19:33:19 45° SW
Ariane Rocket 2.8 19:33:38 81° ESE 19:33:50 83° ENE 19:38:53 10° N
STARLINK-1158 4.5 19:30:26 10° NW 19:34:22 45° WSW 19:34:27 45° SW
SJ-11-01 4.3 19:33:57 58° SSW 19:34:46 74° WSW 19:39:26 10° NNW
Meteor 1-24 Rocket 3.5 19:29:49 10° N 19:35:08 81° W 19:37:05 40° S
ARGOS Delta rocket 4.1 19:37:07 47° SSW 19:38:24 69° W 19:43:24 10° NNW
Cosmos 332 Rocket 4.1 19:34:59 10° NNW 19:39:50 66° WSW 19:40:19 62° SW
USA 229 DEB 4.5 19:33:43 10° NW 19:41:09 58° WSW 19:47:31 15° S
USA 229 4.4 19:33:49 10° NW 19:41:15 58° WSW 19:47:31 16° S
IRS-1A Rocket 4.1 19:41:55 81° SSE 19:42:13 90° ENE 19:47:50 10° NNW
Cosmos 1818 3.5 19:37:35 10° SSW 19:42:59 79° WNW 19:43:13 76° NW
H-2A R/B 4.3 19:43:28 10° NNW 19:44:57 11° NNW 19:45:59 10° N
NOSS 3-1 (A) 4.3 19:41:01 10° NNW 19:49:41 81° WSW 19:54:02 35° SSE
Cosmos 1943 3.6 19:47:22 10° SSW 19:52:54 60° WNW 19:55:03 36° N
H-2A R/B 3.0 20:05:15 46° WNW 20:05:15 46° WNW 20:09:25 10° NNW
